This demonstration page uses our WeatherBlox Daily Observations layout. Learn more.

Left ArrowRight Arrow

34.16533, -84.80231

Hourly Observations for August 31, 2018

Temp ( °F °C ) Dew Point ( °F °C ) Humidity (%) Winds ( mph kmh ) Pressure ( in mb ) Visibility ( mi km ) Precip ( " mm )
12:53 am 00:53 Clear 74 23.3 70 21.1 88 88 Calm 30.09 1019 10 16 0.00 0.00
1:53 am 01:53 Mostly Clear 73 22.8 71 21.7 94 94 Calm 30.08 1019 10 16 0.00 0.00
2:53 am 02:53 Mostly Clear 71 21.7 70 21.1 96 96 Calm 30.08 1019 10 16 0.00 0.00
3:53 am 03:53 Clear 70 21.1 70 21.1 100 100 Calm 30.08 1019 10 16 0.00 0.00
4:53 am 04:53 Cloudy 71 21.7 70 21.1 96 96 Calm 30.09 1019 10 16 0.00 0.00
5:53 am 05:53 Cloudy 70 21.1 70 21.1 100 100 Calm 30.09 1019 10 16 0.00 0.00
6:53 am 06:53 Mostly Cloudy 72 22.2 70 21.1 94 94 Calm 30.11 1020 10 16 0.00 0.00
7:53 am 07:53 Sunny 71 21.7 70 21.1 96 96 S 6 9 30.12 1020 10 16 0.00 0.00
8:53 am 08:53 Sunny 73 22.8 70 21.1 90 90 VRB 3 6 30.14 1021 10 16 0.00 0.00
9:53 am 09:53 Sunny 77 25 70 21.1 79 79 SSE 3 6 30.14 1021 10 16 0.00 0.00
10:53 am 10:53 Sunny 78 25.6 69 20.6 74 74 SE 3 6 30.14 1021 10 16 0.00 0.00
11:53 am 11:53 Sunny 79 26.1 70 21.1 74 74 Calm 30.15 1021 10 16 0.00 0.00
12:53 pm 12:53 Sunny 82 27.8 66 18.9 58 58 SE 3 6 30.14 1021 10 16 0.00 0.00
1:53 pm 13:53 Mostly Sunny 87 30.6 67 19.4 51 51 S 8 13 30.12 1020 10 16 0.00 0.00
2:53 pm 14:53 Sunny 87 30.6 68 20 53 53 VRB 6 9 30.11 1020 10 16 0.00 0.00
3:53 pm 15:53 Sunny 89 31.7 67 19.4 48 48 S 8 13 30.08 1019 10 16 0.00 0.00
4:53 pm 16:53 Partly Cloudy 86 30 69 20.6 57 57 Calm 30.07 1018 10 16 0.00 0.00
5:53 pm 17:53 Mostly Sunny 87 30.6 68 20 53 53 SSE 6 9 30.05 1018 10 16 0.00 0.00
6:53 pm 18:53 Sunny 83 28.3 68 20 61 61 SSE 5 7 30.05 1018 10 16 0.00 0.00
7:53 pm 19:53 Sunny 76 24.4 71 21.7 85 85 Calm 30.06 1018 10 16 0.00 0.00
8:53 pm 20:53 Clear 73 22.8 70 21.1 90 90 S 3 6 30.09 1019 10 16 0.00 0.00
9:53 pm 21:53 Clear 75 23.9 70 21.1 84 84 N 3 6 30.11 1020 10 16 0.00 0.00
10:53 pm 22:53 Clear 73 22.8 71 21.7 94 94 Calm 30.13 1020 10 16 0.00 0.00
11:53 pm 23:53 Clear 70 21.1 70 21.1 100 100 Calm 30.13 1020 10 16 0.00 0.00

Powered by AerisWeather